GalileoSat-21

operational
NORAD ID: 43057 Int'l Des: 2017-079 Owner: GSAEU Country: I-EU Constellation: Galileo
MEOCIRCULAR

Über GalileoSat-21

Beschreibung wird geladen...

Live-Position

3D-Globus wird geladen...

Nächste Überflüge

Höhenverlauf

Altitude vs Time

uPlot chart will show altitude changes over time

Zweizeiliger Elementsatz

1 43057U 17079C 25298.89466987 .00000005 00000-0 00000+0 0 9990
2 43057 55.1473 227.9522 0003281 312.0815 47.9078 1.70473877 48998
Epoch: 25. Okt. 2025 • Age: 14 hours

Aktueller Status

Höhe 23215.9 km
Geschwindigkeit 3.67 km/s
Subsatellitenpunkt -2.70°S, 19.63°E
Startdatum 12. Dez. 2017
Alter 7.8 years
Typ navigation

Technische Details

Klassifizierung Payload
Masse 715.00 kg
Trockenmasse 700.00 kg
Gesamtmasse 715.00 kg
Länge 2.70 m
Durchmesser 1.60 m
Spannweite 14.70 m
Form Box+2 pan
Hersteller OHB
Bus-Typ GalileoSat
Phasenstatus In Orbit
Besitzer/Staat GSAEU/I-EU

Große Konstellationen

Loading constellations...